Simultaneous Nadir Overpasses (SNOs) Predictions

Prediction of SNOs between GOES-16 and LANDSAT-8 Satellite Orbit:

Table of predicted SNOs for the next 14.0 days since TLE Epoch: 9/11/2020
Index Date Time (GOES-16) GOES-16 Lat,Lon LANDSAT-8 Lat,Lon Distance(km) Time Diff (sec)
1 09/12/2020 03:03:44 -0.01, -75.17 0.39, -73.19 224.64 80
2 09/12/2020 15:27:40 0.02, -75.19 0.69, -78.35 359.32 80
3 09/14/2020 15:15:29 0.02, -75.19 0.08, -75.39 22.74 80
4 09/16/2020 15:00:39 0.02, -75.20 -0.58, -72.44 314.54 80
5 09/17/2020 03:24:43 -0.02, -75.19 -0.54, -77.63 277.45 80
6 09/19/2020 03:09:52 -0.02, -75.20 0.07, -74.67 60.53 80
7 09/21/2020 02:57:42 -0.02, -75.22 0.74, -71.72 398.88 80
8 09/21/2020 15:21:37 0.03, -75.25 0.40, -76.87 184.55 80
9 09/23/2020 15:06:47 0.03, -75.27 -0.27, -73.92 154.35 80
10 09/24/2020 03:30:51 -0.04, -75.26 -0.84, -79.11 437.16 80
11 09/25/2020 14:54:36 0.03, -75.30 -0.89, -70.96 493.71 80
